Regional Weather Roundup
Issued by NWS

Home | Current Version | Previous Version | Graphics & Text | Print | Product List | Glossary On
Versions: 1 2 3 4 5 6 7 8 9 10 11 12 13 14 15 16 17 18 19 20 21 22 23 24 25 26 27 28 29 30 31 32 33 34 35 36 37 38 39 40 41 42 43 44 45 46 47 48 49 50
906
ASUS43 KOAX 231910
RWRNE

WEATHER ROUNDUP FOR NEBRASKA
NATIONAL WEATHER SERVICE OMAHA NE
100 PM CST THU FEB 23 2017

NOTES: SATELLITE DATA IS BEING USED TO AUGMENT CLOUD COVER ABOVE
       12000 FEET.
       "FAIR" INDICATES FEW OR NO CLOUDS BELOW 12,000 FEET WITH NO
       SIGNIFICANT WEATHER AND/OR OBSTRUCTIONS TO VISIBILITY.

  * THESE STATIONS DO NOT REPORT WEATHER SUCH AS RAIN...SNOW OR FOG.

NEZ001>004-019>022-054>056-232000-
NEBRASKA PANHANDLE

CITY           SKY/WX    TMP DP  RH WIND       PRES   REMARKS
SCOTTSBLUFF    LGT SNOW  25  20  81 NE10      29.69S VSB 3/4 WCI  15
ALLIANCE       LGT SNOW  22  19  89 NE22G28   29.67F VSB 3/4 WCI   6
CHADRON        FOG       25  21  85 NE18      29.79F VSB 1/2 WCI  11
KIMBALL        LGT SNOW  25  25 100 NE13      29.61R WCI  13
SIDNEY         LGT SNOW  25  22  88 NE16      29.60F FOG     WCI  12
$$

NEZ057>060-069>072-079>082-232000-
SOUTHWEST NEBRASKA

CITY           SKY/WX    TMP DP  RH WIND       PRES   REMARKS
NORTH PLATTE   CLOUDY    31  24  75 NE20G29   29.61F WCI  19
IMPERIAL       FRZ RAIN  29  27  92 NE20      29.59F FOG     WCI  16
LEXINGTON      CLOUDY    32  31  94 NE20      29.61F WCI  20
MCCOOK         MIX PCPN  32  32 100 NE20      29.58F FOG     WCI  20
OGALLALA       CLOUDY    29  25  83 NE15      29.63F WCI  18
$$

NEZ005>010-023>029-035>040-094-232000-
NORTH CENTRAL NEBRASKA

CITY           SKY/WX    TMP DP  RH WIND       PRES   REMARKS
VALENTINE      HVY SNOW  26  22  84 NE22G30   29.79F VSB 1/4 WCI  12
AINSWORTH      SNOW      27  26  96 NE21G28   29.76F VSB 1/4 WCI  13
BROKEN BOW     CLOUDY    30  27  88 NE24G35   29.62F WCI  16
O`NEILL        LGT SNOW  30  29  94 NE22G28   29.76F VSB 3/4 WCI  17
ORD            CLOUDY    32  26  78 NE21G28   29.67F WCI  20
THEDFORD       LGT SNOW  27  25  89 NE16G31   29.69F VSB 1   WCI  15
$$

NEZ041-046>049-061>064-073>077-083>087-232000-
SOUTH CENTRAL NEBRASKA

CITY           SKY/WX    TMP DP  RH WIND       PRES   REMARKS
GRAND ISLAND   CLOUDY    34  33  96 NE21G28   29.64F WCI  22
AURORA         CLOUDY    36  33  91 NE21      29.63F WCI  24
HASTINGS       CLOUDY    34  32  92 NE24      29.61F WCI  21
HEBRON         CLOUDY    41  33  73 NE17      29.57F
HOLDREGE       CLOUDY    33  31  94 NE21G26   29.60S WCI  21
KEARNEY *      CLOUDY    34  28  80 NE21G30   29.61F WCI  22
YORK           CLOUDY    37  32  81 NE22      29.63F WCI  27
$$

NEZ011>018-030>034-042>045-232000-
NORTHEAST NEBRASKA

CITY           SKY/WX    TMP DP  RH WIND       PRES   REMARKS
NORFOLK        MIX PCPN  33  28  81 NE17G29   29.69F WCI  22
ALBION         CLOUDY    34  30  85 NE17G25   29.69F WCI  23
BLAIR          CLOUDY    39  34  83 NE18G24   29.64F WCI  29
FREMONT        CLOUDY    38  33  82 NE9       29.68F WCI  32
TEKAMAH        CLOUDY    38  33  82 NE20G26   29.70F WCI  28
WAYNE          CLOUDY    35  31  86 N22G29    29.72F WCI  23
$$

NEZ050>053-065>068-078-088>093-232000-
SOUTHEAST NEBRASKA

CITY           SKY/WX    TMP DP  RH WIND       PRES   REMARKS
LINCOLN        CLOUDY    42  34  73 NE16      29.65F
OMAHA EPPLEY   CLOUDY    42  34  73 NE20      29.65F
BEATRICE       CLOUDY    41  36  81 NE14      29.60F
FALLS CITY     MOSUNNY   49  39  68 E16G28    29.54F
NEBRASKA CITY  CLOUDY    42  35  74 E13       29.60F
PLATTSMOUTH    CLOUDY    43  33  69 NE15G22   29.63F
$$

NEZ044-045-051>053-067-232000-
OMAHA AREA

CITY           SKY/WX    TMP DP  RH WIND       PRES   REMARKS
OMAHA EPPLEY   CLOUDY    42  34  73 NE20      29.65F
BLAIR          CLOUDY    39  34  83 NE18G24   29.64F WCI  29
FREMONT        CLOUDY    38  33  82 NE9       29.68F WCI  32
MILLARD        CLOUDY    43  36  75 NE12G20   29.65F
OFFUTT AFB     CLOUDY    43  35  74 NE13G23   29.64F
PLATTSMOUTH    CLOUDY    43  33  69 NE15G22   29.63F
WAHOO          CLOUDY    39  33  78 NE18      29.66F WCI  30
$$




USA.gov is the U.S. government's official web portal to all federal, state and local government web resources and services.